Location: Castillon
(43.0896°N, 0.2156°E)
Time: 20:00:21
(UTC+00:00)

Terra - Pass Details

Date: 16 June 2021
Orbit: 701 x 703 km, 98.2° (Epoch: 31 July)

Event Time Altitude Azimuth Distance (km) Brightness Sun altitude
Exits shadow 22:44:43 22° 227° (SW) 1,506 3.3 -21.3°
Maximum altitude 22:46:34 29° 264° (W) 1,283 3.2 -21.4°
Drops below altitude 10° 22:50:43 10° 325° (NW) 2,179 5.4 -21.6°
Sets 22:53:15 0° 336° (NNW) 3,103 6.6 -21.8°
